Regional Weather Roundup
Issued by NWS Newport/Morehead, NC

Current Version | Previous Version | Text Only | Print | Product List | Glossary On
Versions: 1 2 3 4 5 6 7 8 9 10 11 12 13 14 15 16 17 18 19 20 21 22 23 24 25 26 27 28 29 30 31 32 33 34 35 36 37 38 39 40 41 42 43 44 45 46 47 48 49 50
000
ASUS42 KMHX 212125
RWRMHX
WEATHER ROUNDUP FOR EASTERN NORTH CAROLINA
NATIONAL WEATHER SERVICE NEWPORT/MOREHEAD CITY NC
400 PM EST TUE FEB 21 2017

NOTE: "FAIR" INDICATES FEW OR NO CLOUDS BELOW 12,000 FEET
WITH NO SIGNIFICANT WEATHER AND/OR OBSTRUCTIONS TO VISIBILITY

NCZ015>017-031-032-045>047-102-103-212200-
NORTH COAST

CITY           SKY/WX    TMP DP  RH WIND       PRES   REMARKS
EDENTON        CLOUDY    57  44  62 E10       30.19F
ELIZABETH CITY MOSUNNY   56  42  59 E9        30.20F
KITTY HAWK     NOT AVBL
MANTEO         MOSUNNY   52  45  75 E12G18    30.19F

$$

NCZ045>047-081-094-103-104-212200-
CENTRAL COAST

CITY           SKY/WX    TMP DP  RH WIND       PRES   REMARKS
FRISCO         CLOUDY    64  52  64 NE8       30.17F

$$

NCZ095-097-098-100-101-212200-
SOUTHERN COAST

CITY           SKY/WX    TMP DP  RH WIND       PRES   REMARKS
BEAUFORT       CLOUDY    64  51  62 E7        30.15F
CEDAR ISLAND   NOT AVBL
JACKSONVILLE   PTSUNNY   66  52  60 SE7       30.14F
PINEY ISLAND   CLOUDY   N/A N/A N/A NE15      30.16F
WILMINGTON     CLOUDY    64  52  64 E12       30.14F


$$

NCZ011>013-027>030-043-044-078>080-089-090>093-098-212200-
COASTAL PLAIN

CITY           SKY/WX    TMP DP  RH WIND       PRES   REMARKS
AHOSKIE          N/A     60  44  54 SE5       30.17F
CLINTON        CLOUDY    67  39  36 CALM      30.14F
ELIZABETHTOWN  MOSUNNY   67  43  40 E5        30.12S
GOLDSBORO      MOSUNNY   65  44  46 E6        30.13F
GREENVILLE     MOSUNNY   64  46  52 SE6       30.17S
HAVELOCK       PTSUNNY   61  50  67 NE10      30.17
KENANSVILLE    NOT AVBL
KINSTON        MOSUNNY   66  46  48 SE6       30.16F
NEW BERN       MOSUNNY   63  50  62 SE7       30.17F
RICHLANDS      CLOUDY    66  48  52 SE5       30.15F
ROCKY MOUNT    PTSUNNY   62  46  55 E5        30.15F
WASHINGTON     CLOUDY    63  48  57 S7        30.16S
WHITEVILLE     PTSUNNY   69  38  32 E5        30.12S

$$

AMZ130-135-150-152-154-156-158-170-250-252-270-ANZ085-086-088-633-658-670-212200-
MARINE OBSERVATIONS

STATION/POSITION TIME  TEMP    WIND        PRES    WAVE   SWELL
                       AIR SEA DIR/SP/G            HT/PER HT/PER
                 (UTC) (F)     (DEG/KT/KT) (MB)    (FT/S) (FT/S)
CHESAPEAKE LIGHT NOT AVBL
64 E VA BEACH    2050   52 53   70/ 14/ 16 1022.7    4/ 6   3/ 6
DUCK             2100   49 49   40/ 11/ 12 1022.0
2 E DUCK         2100      50                N/A     4/ 7
OREGON INLET     2100   51 51   40/ 11/ 13 1021.9
13E OREGON INLT  NOT AVBL
HATTERAS CG      2100   57 58   40/  7/ 11 1021.2
DIAMOND BUOY     2050   63 75  110/ 10/ 14 1021.6    5/10   5/10
CAPE LOOKOUT     2100   57      40/ 13/ 15 1020.9
BEAUFORT LAB     2100   63 53   80/  7/ 10 1020.1
30 SE NEW RVR IN 2108   62      50/ 12/ 16 1020.6
30 SE NEW RVR IN 2113      69                N/A     3/ 4
27 SE WRIGHTSVLE 2108   62 64   60/ 12/ 17 1020.2
5 SE WRIGHTSVLE  2108   58 56   70/  8/ 12 1020.3
225 S CAPE HAT   2050   64 71   60/ 12/ 16 1019.8    5/ 8   3/ 8
41 SE CHARLESTON 2050   70 69  100/ 16/ 19 1017.7    4/ 6   2/16

$$



USA.gov is the U.S. government's official web portal to all federal, state and local government web resources and services.